User: anonymous   Login
Location: Unspecified
(0.0000°N, 0.0000°E)
Time: 23:18:10
(UTC+00:00)
Language:

SICRAL 2 - Orbit

View from above orbital plane
View from above orbital plane
View from above satellite
View from above satellite

Ground track
Ground track

The orbit data is extracted from the following two-line orbital elements,

1 40614U 15022B   17326.62588671 0.00000000  00000-0  00000-0 0    00
2 40614   0.0330 324.1156 0002000 335.7199  24.2725  1.00270000    06
Epoch (UTC): 22 November 2017 15:01:16
Eccentricity: 0.0002000
inclination: 0.0330°
perigee height: 35778 km
apogee height: 35795 km
right ascension of ascending node: 324.1156°
argument of perigee: 335.7199°
revolutions per day: 1.00270000
mean anomaly at epoch: 24.2725°
orbit number at epoch: 0

The dashed part of the orbit path shows where the satellite is in the earth's shadow,  

DLR